Voltar ao catálogo

STARLINK-34165

AtivoComunicaçõesVLEO
NORAD 63997·PAYLOAD·🇺🇸 United States

Lançado May 14, 2025 de Cape Canaveral Space Force Station

Loading…

Próximas Passagens (próximas 24 horas)

TLE

AtualizadoSource: CelesTrak SupGP

Época: Sep 15, 2026, 02:41 UTC

1 63997C 25101D   26258.11229167  .00012714  00000+0  46044-3 0  2588
2 63997  43.0038   7.8999 0001499 267.1344 268.1926 15.27576024    10

Acompanhe STARLINK-34165 em tempo real com AllMySat

Download on the App Store